Orbital Elements at Epoch 2459000.5 (2020-May-31.0) TDB
Reference: JPL 23 (heliocentric ecliptic J2000)
Element | Value | Uncertainty (1-sigma) | Units |
e | .2259097210187904 | 4.4289e-08 | |
a | 2.645137563160637 | 1.2308e-08 | au |
q | 2.047575274210694 | 1.1715e-07 | au |
i | 7.219446395178267 | 4.4479e-06 | deg |
node | 85.56649084430585 | 3.5597e-05 | deg |
peri | 346.0450859136682 | 3.7019e-05 | deg |
M | 98.42616935736659 | 9.9333e-06 | deg |
tp | 2458570.885526995747 (2019-Mar-28.38552700) | 4.1949e-05 | TDB |
period | 1571.342370543608 4.30 | 1.0968e-05 3.003e-08 | d yr |
n | .2291034765870008 | 1.5991e-09 | deg/d |
Q | 3.242699852110579 | 1.5089e-08 | au |
|
| | Orbit Determination Parameters
Additional Information
|